Tabellarische Ansicht des 17.6.2019


Die einzelnen Werte des Tages

Uhrzeit Temperatur Luftdruck Luftfeuchte Wind Hi-Wind Taupunkt THW Index Wind Chill Heat Index Solar- strahlung Regen

00:00

16.4 C

1018.2 hpa

84 %

1.6 km/h aus 117

4.8 km/h aus E

13.7 C

16.6 C

16.4 C

16.6 C

0 W/m

0.00 mm

00:05

16.3 C

1018.2 hpa

84 %

1.6 km/h aus 115

6.4 km/h aus E

13.6 C

16.4 C

16.3 C

16.4 C

0 W/m

0.00 mm

00:10

16.2 C

1018.2 hpa

84 %

1.6 km/h aus 115

3.2 km/h aus E

13.5 C

16.3 C

16.2 C

16.3 C

0 W/m

0.00 mm

00:15

16.1 C

1018.2 hpa

84 %

0.0 km/h aus 114

3.2 km/h aus E

13.4 C

16.2 C

16.1 C

16.2 C

0 W/m

0.00 mm

00:20

15.9 C

1018.2 hpa

85 %

1.6 km/h aus 116

4.8 km/h aus E

13.4 C

16.1 C

15.9 C

16.1 C

0 W/m

0.00 mm

00:25

15.8 C

1018.2 hpa

85 %

0.0 km/h aus 116

0.0 km/h aus ---

13.3 C

15.8 C

15.8 C

15.8 C

0 W/m

0.00 mm

00:30

15.7 C

1018.1 hpa

85 %

0.0 km/h aus 117

0.0 km/h aus ---

13.2 C

15.7 C

15.7 C

15.7 C

0 W/m

0.00 mm

00:35

15.6 C

1018.1 hpa

85 %

0.0 km/h aus 117

0.0 km/h aus ---

13.0 C

15.6 C

15.6 C

15.6 C

0 W/m

0.00 mm

00:40

15.5 C

1018.1 hpa

85 %

0.0 km/h aus 114

0.0 km/h aus ---

13.0 C

15.6 C

15.5 C

15.6 C

0 W/m

0.00 mm

00:45

15.4 C

1018.4 hpa

85 %

0.0 km/h aus 116

0.0 km/h aus ---

12.9 C

15.4 C

15.4 C

15.4 C

0 W/m

0.00 mm

00:50

15.3 C

1018.4 hpa

86 %

0.0 km/h aus 116

0.0 km/h aus ---

13.0 C

15.4 C

15.3 C

15.4 C

0 W/m

0.00 mm

00:55

15.3 C

1018.4 hpa

86 %

0.0 km/h aus 117

0.0 km/h aus ---

12.9 C

15.3 C

15.3 C

15.3 C

0 W/m

0.00 mm

01:00

15.2 C

1018.3 hpa

86 %

0.0 km/h aus 117

0.0 km/h aus ---

12.8 C

15.2 C

15.2 C

15.2 C

0 W/m

0.00 mm

01:05

15.1 C

1018.3 hpa

86 %

0.0 km/h aus 113

0.0 km/h aus ---

12.8 C

15.2 C

15.1 C

15.2 C

0 W/m

0.00 mm

01:10

15.0 C

1018.3 hpa

86 %

0.0 km/h aus 117

0.0 km/h aus ---

12.7 C

15.0 C

15.0 C

15.0 C

0 W/m

0.00 mm

01:15

14.9 C

1018.2 hpa

86 %

0.0 km/h aus 117

0.0 km/h aus ---

12.6 C

14.9 C

14.9 C

14.9 C

0 W/m

0.00 mm

01:20

14.8 C

1018.2 hpa

86 %

0.0 km/h aus 116

1.6 km/h aus E

12.5 C

14.8 C

14.8 C

14.8 C

0 W/m

0.00 mm

01:25

14.7 C

1018.2 hpa

86 %

0.0 km/h aus 118

1.6 km/h aus E

12.3 C

14.7 C

14.7 C

14.7 C

0 W/m

0.00 mm

01:30

14.6 C

1018.2 hpa

87 %

1.6 km/h aus 114

3.2 km/h aus E

12.4 C

14.6 C

14.6 C

14.6 C

0 W/m

0.00 mm

01:35

14.5 C

1018.2 hpa

86 %

0.0 km/h aus 116

1.6 km/h aus E

12.2 C

14.4 C

14.5 C

14.4 C

0 W/m

0.00 mm

01:40

14.4 C

1018.2 hpa

86 %

0.0 km/h aus 117

1.6 km/h aus E

12.1 C

14.3 C

14.4 C

14.3 C

0 W/m

0.00 mm

01:45

14.3 C

1018.2 hpa

87 %

0.0 km/h aus 117

1.6 km/h aus E

12.2 C

14.3 C

14.3 C

14.3 C

0 W/m

0.00 mm

01:50

14.3 C

1018.2 hpa

87 %

0.0 km/h aus 116

0.0 km/h aus ---

12.1 C

14.3 C

14.3 C

14.3 C

0 W/m

0.00 mm

01:55

14.2 C

1018.2 hpa

87 %

0.0 km/h aus 114

0.0 km/h aus ---

12.0 C

14.2 C

14.2 C

14.2 C

0 W/m

0.00 mm

02:00

14.1 C

1018.3 hpa

87 %

0.0 km/h aus 116

0.0 km/h aus ---

12.0 C

14.1 C

14.1 C

14.1 C

0 W/m

0.00 mm

02:05

14.0 C

1018.3 hpa

87 %

0.0 km/h aus 117

0.0 km/h aus ---

11.9 C

14.0 C

14.0 C

14.0 C

0 W/m

0.00 mm

02:10

13.9 C

1018.3 hpa

87 %

0.0 km/h aus 116

1.6 km/h aus E

11.8 C

13.9 C

13.9 C

13.9 C

0 W/m

0.00 mm

02:15

13.8 C

1018.4 hpa

87 %

0.0 km/h aus 117

0.0 km/h aus ---

11.7 C

13.8 C

13.8 C

13.8 C

0 W/m

0.00 mm

02:20

13.7 C

1018.4 hpa

87 %

0.0 km/h aus 114

1.6 km/h aus E

11.6 C

13.7 C

13.7 C

13.7 C

0 W/m

0.00 mm

02:25

13.6 C

1018.4 hpa

87 %

0.0 km/h aus 115

1.6 km/h aus E

11.5 C

13.6 C

13.6 C

13.6 C

0 W/m

0.00 mm

02:30

13.6 C

1018.4 hpa

87 %

0.0 km/h aus 117

0.0 km/h aus ---

11.4 C

13.6 C

13.6 C

13.6 C

0 W/m

0.00 mm

02:35

13.5 C

1018.4 hpa

87 %

1.6 km/h aus 117

1.6 km/h aus E

11.4 C

13.5 C

13.5 C

13.5 C

0 W/m

0.00 mm

02:40

13.4 C

1018.4 hpa

87 %

1.6 km/h aus 117

1.6 km/h aus E

11.3 C

13.4 C

13.4 C

13.4 C

0 W/m

0.00 mm

02:45

13.3 C

1018.5 hpa

88 %

0.0 km/h aus 113

0.0 km/h aus ---

11.4 C

13.3 C

13.3 C

13.3 C

0 W/m

0.00 mm

02:50

13.3 C

1018.5 hpa

88 %

0.0 km/h aus 115

0.0 km/h aus ---

11.4 C

13.3 C

13.3 C

13.3 C

0 W/m

0.00 mm

02:55

13.2 C

1018.5 hpa

88 %

0.0 km/h aus 116

3.2 km/h aus E

11.3 C

13.2 C

13.2 C

13.2 C

0 W/m

0.00 mm

03:00

13.2 C

1018.5 hpa

88 %

1.6 km/h aus 117

3.2 km/h aus E

11.2 C

13.2 C

13.2 C

13.2 C

0 W/m

0.00 mm

03:05

13.1 C

1018.5 hpa

88 %

1.6 km/h aus 116

3.2 km/h aus E

11.1 C

13.1 C

13.1 C

13.1 C

0 W/m

0.00 mm

03:10

13.0 C

1018.5 hpa

88 %

1.6 km/h aus 115

3.2 km/h aus E

11.1 C

13.0 C

13.0 C

13.0 C

0 W/m

0.00 mm

03:15

12.9 C

1018.5 hpa

88 %

3.2 km/h aus 115

4.8 km/h aus E

11.0 C

12.9 C

12.9 C

12.9 C

0 W/m

0.00 mm

03:20

12.9 C

1018.5 hpa

89 %

3.2 km/h aus 117

4.8 km/h aus E

11.1 C

12.9 C

12.9 C

12.9 C

0 W/m

0.00 mm

03:25

12.8 C

1018.5 hpa

89 %

4.8 km/h aus 116

6.4 km/h aus E

11.1 C

12.9 C

12.8 C

12.9 C

0 W/m

0.00 mm

03:30

12.8 C

1018.5 hpa

89 %

1.6 km/h aus 118

4.8 km/h aus E

11.1 C

12.9 C

12.8 C

12.9 C

0 W/m

0.00 mm

03:35

12.8 C

1018.5 hpa

89 %

0.0 km/h aus 116

0.0 km/h aus ---

11.0 C

12.8 C

12.8 C

12.8 C

0 W/m

0.00 mm

03:40

12.8 C

1018.5 hpa

89 %

0.0 km/h aus 114

0.0 km/h aus ---

11.0 C

12.8 C

12.8 C

12.8 C

0 W/m

0.00 mm

03:45

12.8 C

1018.5 hpa

90 %

0.0 km/h aus 117

0.0 km/h aus ---

11.2 C

12.8 C

12.8 C

12.8 C

0 W/m

0.00 mm

03:50

12.7 C

1018.5 hpa

90 %

0.0 km/h aus 117

0.0 km/h aus ---

11.1 C

12.8 C

12.7 C

12.8 C

0 W/m

0.00 mm

03:55

12.7 C

1018.5 hpa

90 %

0.0 km/h aus 117

0.0 km/h aus ---

11.1 C

12.7 C

12.7 C

12.7 C

0 W/m

0.00 mm

04:00

12.7 C

1018.5 hpa

89 %

0.0 km/h aus 116

0.0 km/h aus ---

10.9 C

12.7 C

12.7 C

12.7 C

0 W/m

0.00 mm

04:05

12.6 C

1018.5 hpa

89 %

0.0 km/h aus 114

0.0 km/h aus ---

10.8 C

12.6 C

12.6 C

12.6 C

0 W/m

0.00 mm

04:10

12.6 C

1018.5 hpa

89 %

0.0 km/h aus 117

0.0 km/h aus ---

10.8 C

12.6 C

12.6 C

12.6 C

0 W/m

0.00 mm

04:15

12.4 C

1018.5 hpa

89 %

0.0 km/h aus 117

0.0 km/h aus ---

10.7 C

12.5 C

12.4 C

12.5 C

0 W/m

0.00 mm

04:20

12.4 C

1018.5 hpa

89 %

0.0 km/h aus 116

0.0 km/h aus ---

10.7 C

12.5 C

12.4 C

12.5 C

0 W/m

0.00 mm

04:25

12.3 C

1018.5 hpa

89 %

0.0 km/h aus 117

0.0 km/h aus ---

10.6 C

12.4 C

12.3 C

12.4 C

0 W/m

0.00 mm

04:30

12.3 C

1018.5 hpa

89 %

0.0 km/h aus 115

0.0 km/h aus ---

10.5 C

12.3 C

12.3 C

12.3 C

0 W/m

0.00 mm

04:35

12.2 C

1018.5 hpa

89 %

0.0 km/h aus 115

0.0 km/h aus ---

10.5 C

12.3 C

12.2 C

12.3 C

0 W/m

0.00 mm

04:40

12.2 C

1018.5 hpa

89 %

0.0 km/h aus 117

0.0 km/h aus ---

10.4 C

12.2 C

12.2 C

12.2 C

0 W/m

0.00 mm

04:45

12.1 C

1018.5 hpa

89 %

0.0 km/h aus 117

0.0 km/h aus ---

10.4 C

12.2 C

12.1 C

12.2 C

0 W/m

0.00 mm

04:50

12.1 C

1018.5 hpa

89 %

0.0 km/h aus 117

0.0 km/h aus ---

10.3 C

12.1 C

12.1 C

12.1 C

1 W/m

0.00 mm

04:55

12.0 C

1018.5 hpa

89 %

0.0 km/h aus 114

0.0 km/h aus ---

10.2 C

12.1 C

12.0 C

12.1 C

5 W/m

0.00 mm

05:00

11.9 C

1018.4 hpa

89 %

0.0 km/h aus 114

0.0 km/h aus ---

10.2 C

12.0 C

11.9 C

12.0 C

7 W/m

0.00 mm

05:05

11.9 C

1018.4 hpa

89 %

0.0 km/h aus 117

0.0 km/h aus ---

10.2 C

12.0 C

11.9 C

12.0 C

9 W/m

0.00 mm

05:10

11.9 C

1018.4 hpa

89 %

0.0 km/h aus 116

0.0 km/h aus ---

10.1 C

11.9 C

11.9 C

11.9 C

11 W/m

0.00 mm

05:15

11.8 C

1018.4 hpa

89 %

0.0 km/h aus 117

0.0 km/h aus ---

10.1 C

11.9 C

11.8 C

11.9 C

13 W/m

0.00 mm

05:20

11.8 C

1018.4 hpa

89 %

0.0 km/h aus 117

0.0 km/h aus ---

10.0 C

11.8 C

11.8 C

11.8 C

15 W/m

0.00 mm

05:25

11.8 C

1018.4 hpa

89 %

0.0 km/h aus 114

0.0 km/h aus ---

10.0 C

11.8 C

11.8 C

11.8 C

18 W/m

0.00 mm

05:30

11.8 C

1018.4 hpa

89 %

0.0 km/h aus 116

0.0 km/h aus ---

10.0 C

11.8 C

11.8 C

11.8 C

20 W/m

0.00 mm

05:35

11.8 C

1018.4 hpa

90 %

0.0 km/h aus 117

0.0 km/h aus ---

10.2 C

11.8 C

11.8 C

11.8 C

22 W/m

0.00 mm

05:40

11.7 C

1018.4 hpa

90 %

0.0 km/h aus 118

0.0 km/h aus ---

10.1 C

11.8 C

11.7 C

11.8 C

25 W/m

0.00 mm

05:45

11.8 C

1018.4 hpa

90 %

0.0 km/h aus 117

0.0 km/h aus ---

10.2 C

11.8 C

11.8 C

11.8 C

26 W/m

0.00 mm

05:50

11.8 C

1018.4 hpa

91 %

0.0 km/h aus 115

0.0 km/h aus ---

10.4 C

11.9 C

11.8 C

11.9 C

32 W/m

0.00 mm

05:55

11.9 C

1018.4 hpa

91 %

0.0 km/h aus 114

0.0 km/h aus ---

10.5 C

12.0 C

11.9 C

12.0 C

39 W/m

0.00 mm

06:00

12.1 C

1018.4 hpa

91 %

0.0 km/h aus 117

0.0 km/h aus ---

10.6 C

12.1 C

12.1 C

12.1 C

47 W/m

0.00 mm

06:05

12.2 C

1018.4 hpa

91 %

0.0 km/h aus 117

0.0 km/h aus ---

10.7 C

12.2 C

12.2 C

12.2 C

66 W/m

0.00 mm

06:10

12.3 C

1018.4 hpa

92 %

0.0 km/h aus 116

0.0 km/h aus ---

11.0 C

12.3 C

12.3 C

12.3 C

88 W/m

0.00 mm

06:15

12.5 C

1018.5 hpa

93 %

0.0 km/h aus 115

0.0 km/h aus ---

11.4 C

12.6 C

12.5 C

12.6 C

98 W/m

0.00 mm

06:20

12.9 C

1018.5 hpa

93 %

1.6 km/h aus 115

4.8 km/h aus E

11.8 C

13.0 C

12.9 C

13.0 C

110 W/m

0.00 mm

06:25

13.2 C

1018.5 hpa

93 %

1.6 km/h aus 117

4.8 km/h aus E

12.1 C

13.3 C

13.2 C

13.3 C

122 W/m

0.00 mm

06:30

13.4 C

1018.5 hpa

93 %

1.6 km/h aus 117

3.2 km/h aus E

12.3 C

13.6 C

13.4 C

13.6 C

135 W/m

0.00 mm

06:35

13.7 C

1018.5 hpa

94 %

1.6 km/h aus 117

3.2 km/h aus E

12.8 C

13.8 C

13.7 C

13.8 C

150 W/m

0.00 mm

06:40

13.9 C

1018.5 hpa

93 %

1.6 km/h aus 115

3.2 km/h aus E

12.8 C

14.0 C

13.9 C

14.0 C

165 W/m

0.00 mm

06:45

14.1 C

1018.5 hpa

94 %

1.6 km/h aus 116

3.2 km/h aus E

13.1 C

14.2 C

14.1 C

14.2 C

177 W/m

0.00 mm

06:50

14.3 C

1018.5 hpa

94 %

0.0 km/h aus 117

0.0 km/h aus ---

13.4 C

14.4 C

14.3 C

14.4 C

189 W/m

0.00 mm

06:55

14.6 C

1018.5 hpa

94 %

0.0 km/h aus 117

0.0 km/h aus ---

13.6 C

14.7 C

14.6 C

14.7 C

203 W/m

0.00 mm

07:00

14.8 C

1018.5 hpa

94 %

0.0 km/h aus 117

0.0 km/h aus ---

13.9 C

15.0 C

14.8 C

15.0 C

218 W/m

0.00 mm

07:05

15.1 C

1018.5 hpa

94 %

0.0 km/h aus 114

0.0 km/h aus ---

14.1 C

15.3 C

15.1 C

15.3 C

234 W/m

0.00 mm

07:10

15.3 C

1018.5 hpa

95 %

0.0 km/h aus 115

0.0 km/h aus ---

14.5 C

15.5 C

15.3 C

15.5 C

251 W/m

0.00 mm

07:15

15.7 C

1018.5 hpa

95 %

0.0 km/h aus 117

0.0 km/h aus ---

14.9 C

15.9 C

15.7 C

15.9 C

266 W/m

0.00 mm

07:20

16.0 C

1018.5 hpa

95 %

0.0 km/h aus 117

0.0 km/h aus ---

15.2 C

16.3 C

16.0 C

16.3 C

276 W/m

0.00 mm

07:25

16.3 C

1018.5 hpa

95 %

0.0 km/h aus 117

0.0 km/h aus ---

15.5 C

16.6 C

16.3 C

16.6 C

289 W/m

0.00 mm

07:30

16.4 C

1018.6 hpa

95 %

0.0 km/h aus 114

0.0 km/h aus ---

15.6 C

16.7 C

16.4 C

16.7 C

301 W/m

0.00 mm

07:35

16.6 C

1018.6 hpa

94 %

0.0 km/h aus 115

0.0 km/h aus ---

15.6 C

16.9 C

16.6 C

16.9 C

314 W/m

0.00 mm

07:40

16.8 C

1018.6 hpa

94 %

0.0 km/h aus 117

0.0 km/h aus ---

15.8 C

17.2 C

16.8 C

17.2 C

326 W/m

0.00 mm

07:45

16.9 C

1018.5 hpa

94 %

0.0 km/h aus 116

0.0 km/h aus ---

16.0 C

17.3 C

16.9 C

17.3 C

338 W/m

0.00 mm

07:50

17.2 C

1018.5 hpa

94 %

0.0 km/h aus 117

0.0 km/h aus ---

16.2 C

17.6 C

17.2 C

17.6 C

352 W/m

0.00 mm

07:55

17.4 C

1018.5 hpa

94 %

0.0 km/h aus 114

0.0 km/h aus ---

16.5 C

17.9 C

17.4 C

17.9 C

363 W/m

0.00 mm

08:00

17.6 C

1018.6 hpa

93 %

0.0 km/h aus 117

0.0 km/h aus ---

16.5 C

18.1 C

17.6 C

18.1 C

376 W/m

0.00 mm

08:05

17.8 C

1018.6 hpa

92 %

0.0 km/h aus 116

0.0 km/h aus ---

16.5 C

18.3 C

17.8 C

18.3 C

390 W/m

0.00 mm

08:10

18.1 C

1018.6 hpa

92 %

0.0 km/h aus 117

0.0 km/h aus ---

16.8 C

18.7 C

18.1 C

18.7 C

402 W/m

0.00 mm

08:15

18.4 C

1018.6 hpa

91 %

0.0 km/h aus 114

0.0 km/h aus ---

16.9 C

19.0 C

18.4 C

19.0 C

416 W/m

0.00 mm

08:20

18.6 C

1018.6 hpa

90 %

0.0 km/h aus 116

0.0 km/h aus ---

16.9 C

19.3 C

18.6 C

19.3 C

427 W/m

0.00 mm

08:25

18.9 C

1018.6 hpa

88 %

0.0 km/h aus 117

0.0 km/h aus ---

16.9 C

19.6 C

18.9 C

19.6 C

438 W/m

0.00 mm

08:30

19.1 C

1018.5 hpa

87 %

0.0 km/h aus 117

0.0 km/h aus ---

16.9 C

19.8 C

19.1 C

19.8 C

449 W/m

0.00 mm

08:35

19.4 C

1018.5 hpa

86 %

0.0 km/h aus 116

0.0 km/h aus ---

17.0 C

20.2 C

19.4 C

20.2 C

461 W/m

0.00 mm

08:40

19.7 C

1018.5 hpa

85 %

0.0 km/h aus 114

0.0 km/h aus ---

17.1 C

20.4 C

19.7 C

20.4 C

471 W/m

0.00 mm

08:45

20.0 C

1018.5 hpa

83 %

0.0 km/h aus 117

0.0 km/h aus ---

17.0 C

20.8 C

20.0 C

20.8 C

481 W/m

0.00 mm

08:50

20.3 C

1018.5 hpa

82 %

0.0 km/h aus 118

0.0 km/h aus ---

17.2 C

21.2 C

20.3 C

21.2 C

491 W/m

0.00 mm

08:55

20.6 C

1018.5 hpa

81 %

0.0 km/h aus 117

0.0 km/h aus ---

17.2 C

21.4 C

20.6 C

21.4 C

502 W/m

0.00 mm

09:00

20.9 C

1018.4 hpa

80 %

0.0 km/h aus 114

0.0 km/h aus ---

17.3 C

21.6 C

20.9 C

21.6 C

505 W/m

0.00 mm

09:05

21.2 C

1018.4 hpa

77 %

0.0 km/h aus 116

0.0 km/h aus ---

17.0 C

21.6 C

21.2 C

21.6 C

513 W/m

0.00 mm

09:10

21.4 C

1018.4 hpa

78 %

0.0 km/h aus 116

0.0 km/h aus ---

17.4 C

21.9 C

21.4 C

21.9 C

522 W/m

0.00 mm

09:15

21.6 C

1018.4 hpa

77 %

0.0 km/h aus 117

0.0 km/h aus ---

17.4 C

22.2 C

21.6 C

22.2 C

529 W/m

0.00 mm

09:20

21.8 C

1018.4 hpa

75 %

0.0 km/h aus 116

0.0 km/h aus ---

17.2 C

22.3 C

21.8 C

22.3 C

536 W/m

0.00 mm

09:25

22.1 C

1018.4 hpa

72 %

0.0 km/h aus 114

0.0 km/h aus ---

16.8 C

22.6 C

22.1 C

22.6 C

544 W/m

0.00 mm

09:30

22.0 C

1018.4 hpa

69 %

0.0 km/h aus 117

0.0 km/h aus ---

16.0 C

22.3 C

22.0 C

22.3 C

548 W/m

0.00 mm

09:35

21.2 C

1018.4 hpa

70 %

0.0 km/h aus 117

0.0 km/h aus ---

15.5 C

21.2 C

21.2 C

21.2 C

550 W/m

0.00 mm

09:40

21.2 C

1018.4 hpa

74 %

0.0 km/h aus 116

0.0 km/h aus ---

16.4 C

21.5 C

21.2 C

21.5 C

554 W/m

0.00 mm

09:45

21.3 C

1018.4 hpa

72 %

0.0 km/h aus 115

0.0 km/h aus ---

16.1 C

21.6 C

21.3 C

21.6 C

559 W/m

0.00 mm

09:50

21.2 C

1018.4 hpa

71 %

0.0 km/h aus 116

0.0 km/h aus ---

15.8 C

21.4 C

21.2 C

21.4 C

564 W/m

0.00 mm

09:55

21.5 C

1018.4 hpa

71 %

0.0 km/h aus 117

0.0 km/h aus ---

16.0 C

21.7 C

21.5 C

21.7 C

571 W/m

0.00 mm

10:00

21.6 C

1018.4 hpa

70 %

0.0 km/h aus 117

8.0 km/h aus ENE

15.8 C

21.7 C

21.6 C

21.7 C

573 W/m

0.00 mm

10:05

21.8 C

1018.4 hpa

69 %

4.8 km/h aus 115

8.0 km/h aus ENE

15.8 C

22.0 C

21.8 C

22.0 C

576 W/m

0.00 mm

10:10

21.9 C

1018.4 hpa

71 %

4.8 km/h aus 115

8.0 km/h aus NE

16.4 C

22.3 C

21.9 C

22.3 C

583 W/m

0.00 mm

10:15

21.9 C

1018.4 hpa

69 %

3.2 km/h aus 117

6.4 km/h aus NE

15.9 C

22.1 C

21.9 C

22.1 C

589 W/m

0.00 mm

10:20

21.9 C

1018.4 hpa

69 %

3.2 km/h aus 116

4.8 km/h aus NE

15.9 C

22.1 C

21.9 C

22.1 C

588 W/m

0.00 mm

10:25

22.1 C

1018.4 hpa

70 %

1.6 km/h aus 115

4.8 km/h aus NE

16.3 C

22.4 C

22.1 C

22.4 C

507 W/m

0.00 mm

10:30

22.1 C

1018.2 hpa

72 %

3.2 km/h aus 114

8.0 km/h aus SE

16.8 C

22.4 C

22.1 C

22.4 C

574 W/m

0.00 mm

10:35

22.2 C

1018.2 hpa

68 %

3.2 km/h aus 117

6.4 km/h aus SE

16.0 C

22.5 C

22.2 C

22.5 C

595 W/m

0.00 mm

10:40

22.1 C

1018.2 hpa

68 %

3.2 km/h aus 117

6.4 km/h aus SE

15.9 C

22.3 C

22.1 C

22.3 C

606 W/m

0.00 mm

10:45

22.5 C

1018.0 hpa

64 %

6.4 km/h aus 117

9.7 km/h aus SSW

15.3 C

22.7 C

22.5 C

22.7 C

603 W/m

0.00 mm

10:50

22.7 C

1018.0 hpa

64 %

6.4 km/h aus 115

11.3 km/h aus S

15.5 C

23.0 C

22.7 C

23.0 C

602 W/m

0.00 mm

10:55

22.7 C

1018.0 hpa

61 %

4.8 km/h aus 116

8.0 km/h aus S

14.8 C

22.9 C

22.7 C

22.9 C

595 W/m

0.00 mm

11:00

22.3 C

1017.9 hpa

64 %

3.2 km/h aus 118

9.7 km/h aus SW

15.2 C

22.5 C

22.3 C

22.5 C

603 W/m

0.00 mm

11:05

22.8 C

1017.9 hpa

62 %

1.6 km/h aus 116

8.0 km/h aus ESE

15.2 C

23.2 C

22.8 C

23.2 C

604 W/m

0.00 mm

11:10

23.0 C

1017.9 hpa

59 %

4.8 km/h aus 116

12.9 km/h aus NE

14.6 C

23.2 C

23.0 C

23.2 C

608 W/m

0.00 mm

11:15

23.2 C

1017.9 hpa

63 %

8.0 km/h aus 114

14.5 km/h aus SSE

15.7 C

23.7 C

23.2 C

23.7 C

614 W/m

0.00 mm

11:20

23.2 C

1017.9 hpa

62 %

6.4 km/h aus 117

14.5 km/h aus E

15.5 C

23.7 C

23.2 C

23.7 C

617 W/m

0.00 mm

11:25

23.1 C

1017.9 hpa

55 %

6.4 km/h aus 117

11.3 km/h aus E

13.5 C

23.1 C

23.1 C

23.1 C

622 W/m

0.00 mm

11:30

23.2 C

1017.9 hpa

58 %

1.6 km/h aus 117

6.4 km/h aus ENE

14.5 C

23.4 C

23.2 C

23.4 C

627 W/m

0.00 mm

11:35

23.4 C

1017.9 hpa

57 %

4.8 km/h aus 114

9.7 km/h aus N

14.4 C

23.7 C

23.4 C

23.7 C

620 W/m

0.00 mm

11:40

23.5 C

1017.9 hpa

61 %

3.2 km/h aus 115

8.0 km/h aus ENE

15.5 C

24.0 C

23.5 C

24.0 C

615 W/m

0.00 mm

11:45

24.1 C

1017.7 hpa

55 %

4.8 km/h aus 117

11.3 km/h aus E

14.5 C

24.3 C

24.1 C

24.3 C

606 W/m

0.00 mm

11:50

24.0 C

1017.7 hpa

56 %

6.4 km/h aus 117

12.9 km/h aus ENE

14.7 C

24.3 C

24.0 C

24.3 C

623 W/m

0.00 mm

11:55

23.9 C

1017.7 hpa

55 %

6.4 km/h aus 115

12.9 km/h aus ENE

14.3 C

24.2 C

23.9 C

24.2 C

538 W/m

0.00 mm

12:00

23.4 C

1017.6 hpa

56 %

3.2 km/h aus 113

9.7 km/h aus ESE

14.2 C

23.7 C

23.4 C

23.7 C

631 W/m

0.00 mm

12:05

24.1 C

1017.6 hpa

56 %

8.0 km/h aus 118

11.3 km/h aus ENE

14.7 C

24.3 C

24.1 C

24.3 C

637 W/m

0.00 mm

12:10

23.8 C

1017.6 hpa

54 %

6.4 km/h aus 117

12.9 km/h aus E

14.0 C

24.1 C

23.8 C

24.1 C

637 W/m

0.00 mm

12:15

23.8 C

1017.4 hpa

54 %

6.4 km/h aus 116

11.3 km/h aus ESE

13.9 C

24.0 C

23.8 C

24.0 C

621 W/m

0.00 mm

12:20

24.3 C

1017.4 hpa

55 %

4.8 km/h aus 114

8.0 km/h aus N

14.7 C

24.5 C

24.3 C

24.5 C

648 W/m

0.00 mm

12:25

24.3 C

1017.4 hpa

54 %

4.8 km/h aus 117

11.3 km/h aus ESE

14.4 C

24.5 C

24.3 C

24.5 C

638 W/m

0.00 mm

12:30

23.3 C

1017.4 hpa

59 %

6.4 km/h aus 117

8.0 km/h aus SE

14.9 C

23.7 C

23.3 C

23.7 C

158 W/m

0.00 mm

12:35

23.2 C

1017.4 hpa

63 %

4.8 km/h aus 117

8.0 km/h aus SE

15.7 C

23.7 C

23.2 C

23.7 C

321 W/m

0.00 mm

12:40

24.2 C

1017.4 hpa

59 %

6.4 km/h aus 114

16.1 km/h aus ESE

15.7 C

24.6 C

24.2 C

24.6 C

642 W/m

0.00 mm

12:45

23.6 C

1017.2 hpa

51 %

4.8 km/h aus 115

8.0 km/h aus SSE

12.8 C

23.6 C

23.6 C

23.6 C

234 W/m

0.00 mm

12:50

23.4 C

1017.2 hpa

61 %

3.2 km/h aus 117

8.0 km/h aus NE

15.5 C

23.9 C

23.4 C

23.9 C

383 W/m

0.00 mm

12:55

24.2 C

1017.2 hpa

53 %

3.2 km/h aus 117

6.4 km/h aus S

14.0 C

24.3 C

24.2 C

24.3 C

656 W/m

0.00 mm

13:00

24.8 C

1017.0 hpa

55 %

6.4 km/h aus 116

16.1 km/h aus S

15.1 C

24.9 C

24.8 C

24.9 C

644 W/m

0.00 mm

13:05

24.6 C

1017.0 hpa

54 %

8.0 km/h aus 113

14.5 km/h aus ESE

14.6 C

24.7 C

24.6 C

24.7 C

645 W/m

0.00 mm

13:10

23.9 C

1017.0 hpa

56 %

6.4 km/h aus 117

9.7 km/h aus ESE

14.6 C

24.3 C

23.9 C

24.3 C

501 W/m

0.00 mm

13:15

24.5 C

1016.9 hpa

53 %

4.8 km/h aus 117

9.7 km/h aus ENE

14.3 C

24.6 C

24.5 C

24.6 C

649 W/m

0.00 mm

13:20

24.8 C

1016.9 hpa

50 %

6.4 km/h aus 117

11.3 km/h aus NNE

13.6 C

24.7 C

24.8 C

24.7 C

642 W/m

0.00 mm

13:25

24.9 C

1016.9 hpa

53 %

3.2 km/h aus 115

6.4 km/h aus N

14.7 C

25.0 C

24.9 C

25.0 C

645 W/m

0.00 mm

13:30

25.1 C

1016.9 hpa

51 %

6.4 km/h aus 115

9.7 km/h aus SSE

14.3 C

25.1 C

25.1 C

25.1 C

566 W/m

0.00 mm

13:35

24.1 C

1016.9 hpa

52 %

4.8 km/h aus 117

9.7 km/h aus NE

13.6 C

24.2 C

24.1 C

24.2 C

175 W/m

0.00 mm

13:40

23.7 C

1016.9 hpa

57 %

4.8 km/h aus 117

8.0 km/h aus NE

14.7 C

24.1 C

23.7 C

24.1 C

236 W/m

0.00 mm

13:45

24.3 C

1016.9 hpa

50 %

3.2 km/h aus 115

6.4 km/h aus SE

13.2 C

24.3 C

24.3 C

24.3 C

657 W/m

0.00 mm

13:50

25.2 C

1016.9 hpa

53 %

3.2 km/h aus 114

11.3 km/h aus ESE

14.9 C

25.3 C

25.2 C

25.3 C

640 W/m

0.00 mm

13:55

25.2 C

1016.9 hpa

52 %

8.0 km/h aus 117

14.5 km/h aus SE

14.6 C

25.2 C

25.2 C

25.2 C

637 W/m

0.00 mm

14:00

25.2 C

1016.9 hpa

51 %

6.4 km/h aus 117

11.3 km/h aus SE

14.3 C

25.2 C

25.2 C

25.2 C

638 W/m

0.00 mm

14:05

25.4 C

1016.9 hpa

48 %

6.4 km/h aus 115

11.3 km/h aus NE

13.6 C

25.3 C

25.4 C

25.3 C

638 W/m

0.00 mm

14:10

25.6 C

1016.9 hpa

52 %

6.4 km/h aus 116

17.7 km/h aus E

15.0 C

25.7 C

25.6 C

25.7 C

638 W/m

0.00 mm

14:15

25.1 C

1016.8 hpa

49 %

8.0 km/h aus 117

17.7 km/h aus E

13.6 C

24.9 C

25.1 C

24.9 C

634 W/m

0.00 mm

14:20

25.2 C

1016.8 hpa

51 %

6.4 km/h aus 117

9.7 km/h aus ESE

14.4 C

25.2 C

25.2 C

25.2 C

639 W/m

0.00 mm

14:25

25.1 C

1016.8 hpa

48 %

3.2 km/h aus 117

8.0 km/h aus NE

13.3 C

24.9 C

25.1 C

24.9 C

467 W/m

0.00 mm

14:30

24.9 C

1016.6 hpa

56 %

1.6 km/h aus 113

6.4 km/h aus ESE

15.5 C

25.1 C

24.9 C

25.1 C

637 W/m

0.00 mm

14:35

25.6 C

1016.6 hpa

50 %

4.8 km/h aus 117

14.5 km/h aus E

14.4 C

25.6 C

25.6 C

25.6 C

632 W/m

0.00 mm

14:40

25.4 C

1016.6 hpa

50 %

9.7 km/h aus 117

14.5 km/h aus ENE

14.3 C

25.4 C

25.4 C

25.4 C

635 W/m

0.00 mm

14:45

24.9 C

1016.5 hpa

54 %

6.4 km/h aus 117

9.7 km/h aus E

14.9 C

25.0 C

24.9 C

25.0 C

246 W/m

0.00 mm

14:50

24.6 C

1016.5 hpa

54 %

4.8 km/h aus 115

8.0 km/h aus ESE

14.7 C

24.7 C

24.6 C

24.7 C

434 W/m

0.00 mm

14:55

24.5 C

1016.5 hpa

51 %

6.4 km/h aus 116

9.7 km/h aus SE

13.7 C

24.5 C

24.5 C

24.5 C

323 W/m

0.00 mm

15:00

24.7 C

1016.4 hpa

55 %

6.4 km/h aus 117

9.7 km/h aus E

15.1 C

24.9 C

24.7 C

24.9 C

562 W/m

0.00 mm

15:05

25.2 C

1016.4 hpa

52 %

4.8 km/h aus 117

9.7 km/h aus ESE

14.7 C

25.3 C

25.2 C

25.3 C

558 W/m

0.00 mm

15:10

24.8 C

1016.4 hpa

55 %

8.0 km/h aus 114

11.3 km/h aus ESE

15.2 C

25.0 C

24.8 C

25.0 C

204 W/m

0.00 mm

15:15

25.6 C

1016.4 hpa

54 %

6.4 km/h aus 116

12.9 km/h aus SE

15.6 C

25.8 C

25.6 C

25.8 C

651 W/m

0.00 mm

15:20

25.2 C

1016.4 hpa

51 %

8.0 km/h aus 117

16.1 km/h aus ESE

14.3 C

25.2 C

25.2 C

25.2 C

654 W/m

0.00 mm

15:25

24.7 C

1016.4 hpa

52 %

6.4 km/h aus 117

9.7 km/h aus ESE

14.2 C

24.7 C

24.7 C

24.7 C

222 W/m

0.00 mm

15:30

24.3 C

1016.4 hpa

56 %

8.0 km/h aus 116

11.3 km/h aus E

15.0 C

24.6 C

24.3 C

24.6 C

257 W/m

0.00 mm

15:35

24.7 C

1016.4 hpa

56 %

6.4 km/h aus 115

9.7 km/h aus E

15.3 C

24.9 C

24.7 C

24.9 C

466 W/m

0.00 mm

15:40

25.5 C

1016.4 hpa

54 %

6.4 km/h aus 116

11.3 km/h aus NE

15.5 C

25.7 C

25.5 C

25.7 C

631 W/m

0.00 mm

15:45

25.8 C

1016.2 hpa

50 %

4.8 km/h aus 116

9.7 km/h aus SE

14.6 C

25.8 C

25.8 C

25.8 C

622 W/m

0.00 mm

15:50

25.7 C

1016.2 hpa

52 %

11.3 km/h aus 116

17.7 km/h aus ESE

15.1 C

25.8 C

25.7 C

25.8 C

504 W/m

0.00 mm

15:55

24.7 C

1016.2 hpa

54 %

8.0 km/h aus 114

12.9 km/h aus ESE

14.8 C

24.8 C

24.7 C

24.8 C

166 W/m

0.00 mm

16:00

25.3 C

1015.9 hpa

54 %

3.2 km/h aus 116

8.0 km/h aus E

15.3 C

25.4 C

25.3 C

25.4 C

567 W/m

0.00 mm

16:05

25.7 C

1015.9 hpa

49 %

3.2 km/h aus 116

8.0 km/h aus SE

14.2 C

25.7 C

25.7 C

25.7 C

641 W/m

0.00 mm

16:10

25.8 C

1015.9 hpa

53 %

9.7 km/h aus 117

19.3 km/h aus SE

15.5 C

26.0 C

25.8 C

26.0 C

434 W/m

0.00 mm

16:15

24.9 C

1015.8 hpa

54 %

9.7 km/h aus 115

16.1 km/h aus ESE

14.9 C

25.0 C

24.9 C

25.0 C

228 W/m

0.00 mm

16:20

24.3 C

1015.8 hpa

56 %

6.4 km/h aus 116

12.9 km/h aus SE

15.0 C

24.6 C

24.3 C

24.6 C

178 W/m

0.00 mm

16:25

24.0 C

1015.8 hpa

56 %

6.4 km/h aus 117

11.3 km/h aus SE

14.7 C

24.3 C

24.0 C

24.3 C

188 W/m

0.00 mm

16:30

24.4 C

1015.8 hpa

57 %

4.8 km/h aus 117

8.0 km/h aus ESE

15.3 C

24.7 C

24.4 C

24.7 C

348 W/m

0.00 mm

16:35

25.6 C

1015.8 hpa

52 %

8.0 km/h aus 115

16.1 km/h aus ESE

15.0 C

25.7 C

25.6 C

25.7 C

615 W/m

0.00 mm

16:40

25.9 C

1015.8 hpa

52 %

9.7 km/h aus 116

20.9 km/h aus ESE

15.3 C

26.1 C

25.9 C

26.1 C

515 W/m

0.00 mm

16:45

24.9 C

1015.6 hpa

50 %

12.9 km/h aus 117

24.1 km/h aus ESE

13.8 C

24.5 C

24.6 C

24.8 C

141 W/m

0.00 mm

16:50

24.2 C

1015.6 hpa

55 %

8.0 km/h aus 117

16.1 km/h aus ESE

14.6 C

24.4 C

24.2 C

24.4 C

133 W/m

0.00 mm

16:55

24.9 C

1015.6 hpa

55 %

8.0 km/h aus 115

16.1 km/h aus ESE

15.2 C

25.1 C

24.9 C

25.1 C

579 W/m

0.00 mm

17:00

25.5 C

1015.4 hpa

51 %

8.0 km/h aus 116

11.3 km/h aus ESE

14.6 C

25.6 C

25.5 C

25.6 C

587 W/m

0.00 mm

17:05

25.6 C

1015.4 hpa

49 %

8.0 km/h aus 117

11.3 km/h aus SE

14.1 C

25.6 C

25.6 C

25.6 C

569 W/m

0.00 mm

17:10

25.7 C

1015.4 hpa

50 %

9.7 km/h aus 117

16.1 km/h aus ESE

14.5 C

25.7 C

25.7 C

25.7 C

553 W/m

0.00 mm

17:15

25.8 C

1015.3 hpa

52 %

9.7 km/h aus 116

16.1 km/h aus ESE

15.2 C

25.9 C

25.8 C

25.9 C

543 W/m

0.00 mm

17:20

25.8 C

1015.3 hpa

51 %

8.0 km/h aus 116

14.5 km/h aus ESE

14.9 C

25.9 C

25.8 C

25.9 C

523 W/m

0.00 mm

17:25

25.7 C

1015.3 hpa

53 %

12.9 km/h aus 115

20.9 km/h aus SSE

15.4 C

25.6 C

25.4 C

25.9 C

519 W/m

0.00 mm

17:30

25.8 C

1015.2 hpa

50 %

9.7 km/h aus 116

16.1 km/h aus ESE

14.6 C

25.8 C

25.8 C

25.8 C

507 W/m

0.00 mm

17:35

25.7 C

1015.2 hpa

51 %

8.0 km/h aus 116

16.1 km/h aus SE

14.8 C

25.8 C

25.7 C

25.8 C

497 W/m

0.00 mm

17:40

25.8 C

1015.2 hpa

51 %

8.0 km/h aus 113

12.9 km/h aus E

14.9 C

25.9 C

25.8 C

25.9 C

496 W/m

0.00 mm

17:45

25.8 C

1015.0 hpa

51 %

6.4 km/h aus 117

11.3 km/h aus ESE

14.9 C

25.9 C

25.8 C

25.9 C

490 W/m

0.00 mm

17:50

25.8 C

1015.0 hpa

46 %

8.0 km/h aus 115

17.7 km/h aus ENE

13.3 C

25.7 C

25.8 C

25.7 C

478 W/m

0.00 mm

17:55

25.8 C

1015.0 hpa

50 %

8.0 km/h aus 116

11.3 km/h aus E

14.6 C

25.8 C

25.8 C

25.8 C

457 W/m

0.00 mm

18:00

25.7 C

1014.9 hpa

49 %

8.0 km/h aus 114

16.1 km/h aus ESE

14.2 C

25.7 C

25.7 C

25.7 C

433 W/m

0.00 mm

18:05

25.7 C

1014.9 hpa

51 %

9.7 km/h aus 115

14.5 km/h aus ESE

14.8 C

25.7 C

25.7 C

25.7 C

432 W/m

0.00 mm

18:10

25.5 C

1014.9 hpa

49 %

6.4 km/h aus 117

11.3 km/h aus ESE

14.0 C

25.4 C

25.5 C

25.4 C

422 W/m

0.00 mm

18:15

25.8 C

1014.8 hpa

51 %

4.8 km/h aus 117

8.0 km/h aus ENE

14.9 C

25.9 C

25.8 C

25.9 C

411 W/m

0.00 mm

18:20

25.6 C

1014.8 hpa

50 %

9.7 km/h aus 114

17.7 km/h aus ESE

14.4 C

25.6 C

25.6 C

25.6 C

399 W/m

0.00 mm

18:25

25.5 C

1014.8 hpa

48 %

9.7 km/h aus 117

16.1 km/h aus ESE

13.7 C

25.4 C

25.5 C

25.4 C

384 W/m

0.00 mm

18:30

25.4 C

1014.8 hpa

52 %

6.4 km/h aus 117

14.5 km/h aus SE

14.9 C

25.6 C

25.4 C

25.6 C

356 W/m

0.00 mm

18:35

25.3 C

1014.8 hpa

50 %

11.3 km/h aus 117

19.3 km/h aus E

14.2 C

25.3 C

25.3 C

25.3 C

354 W/m

0.00 mm

18:40

25.2 C

1014.8 hpa

51 %

8.0 km/h aus 115

19.3 km/h aus ESE

14.4 C

25.2 C

25.2 C

25.2 C

347 W/m

0.00 mm

18:45

25.2 C

1014.7 hpa

53 %

8.0 km/h aus 114

14.5 km/h aus ESE

14.9 C

25.3 C

25.2 C

25.3 C

339 W/m

0.00 mm

18:50

25.0 C

1014.7 hpa

52 %

9.7 km/h aus 116

14.5 km/h aus SE

14.5 C

25.0 C

25.0 C

25.0 C

333 W/m

0.00 mm

18:55

25.1 C

1014.7 hpa

53 %

9.7 km/h aus 117

14.5 km/h aus SE

14.8 C

25.1 C

25.1 C

25.1 C

119 W/m

0.00 mm

19:00

25.1 C

1014.7 hpa

52 %

9.7 km/h aus 117

17.7 km/h aus ESE

14.6 C

25.1 C

25.1 C

25.1 C

74 W/m

0.00 mm

19:05

25.1 C

1014.7 hpa

52 %

9.7 km/h aus 114

19.3 km/h aus ESE

14.6 C

25.1 C

25.1 C

25.1 C

75 W/m

0.00 mm

19:10

25.1 C

1014.7 hpa

52 %

6.4 km/h aus 116

11.3 km/h aus ENE

14.6 C

25.1 C

25.1 C

25.1 C

90 W/m

0.00 mm

19:15

25.1 C

1014.6 hpa

52 %

4.8 km/h aus 117

8.0 km/h aus ESE

14.6 C

25.1 C

25.1 C

25.1 C

98 W/m

0.00 mm

19:20

25.1 C

1014.6 hpa

51 %

6.4 km/h aus 116

16.1 km/h aus ENE

14.3 C

25.1 C

25.1 C

25.1 C

71 W/m

0.00 mm

19:25

25.1 C

1014.6 hpa

52 %

6.4 km/h aus 116

17.7 km/h aus ESE

14.5 C

25.1 C

25.1 C

25.1 C

56 W/m

0.00 mm

19:30

25.0 C

1014.6 hpa

53 %

8.0 km/h aus 116

16.1 km/h aus E

14.8 C

25.1 C

25.0 C

25.1 C

53 W/m

0.00 mm

19:35

24.9 C

1014.6 hpa

53 %

6.4 km/h aus 115

14.5 km/h aus ESE

14.7 C

25.0 C

24.9 C

25.0 C

51 W/m

0.00 mm

19:40

24.8 C

1014.6 hpa

53 %

4.8 km/h aus 116

11.3 km/h aus E

14.6 C

24.9 C

24.8 C

24.9 C

50 W/m

0.00 mm

19:45

24.8 C

1014.5 hpa

53 %

3.2 km/h aus 114

11.3 km/h aus ENE

14.5 C

24.8 C

24.8 C

24.8 C

47 W/m

0.00 mm

19:50

24.7 C

1014.5 hpa

54 %

4.8 km/h aus 116

9.7 km/h aus E

14.8 C

24.8 C

24.7 C

24.8 C

44 W/m

0.00 mm

19:55

24.6 C

1014.5 hpa

54 %

4.8 km/h aus 116

8.0 km/h aus ENE

14.7 C

24.7 C

24.6 C

24.7 C

42 W/m

0.00 mm

20:00

24.6 C

1014.3 hpa

55 %

3.2 km/h aus 117

6.4 km/h aus E

14.9 C

24.7 C

24.6 C

24.7 C

40 W/m

0.00 mm

20:05

24.4 C

1014.3 hpa

55 %

3.2 km/h aus 115

6.4 km/h aus ENE

14.8 C

24.6 C

24.4 C

24.6 C

39 W/m

0.00 mm

20:10

24.4 C

1014.3 hpa

55 %

4.8 km/h aus 115

8.0 km/h aus ENE

14.8 C

24.6 C

24.4 C

24.6 C

37 W/m

0.00 mm

20:15

24.3 C

1014.3 hpa

56 %

4.8 km/h aus 117

9.7 km/h aus ENE

14.9 C

24.5 C

24.3 C

24.5 C

35 W/m

0.00 mm

20:20

24.2 C

1014.3 hpa

56 %

4.8 km/h aus 115

8.0 km/h aus ENE

14.9 C

24.5 C

24.2 C

24.5 C

33 W/m

0.00 mm

20:25

24.2 C

1014.3 hpa

57 %

4.8 km/h aus 116

8.0 km/h aus ENE

15.1 C

24.5 C

24.2 C

24.5 C

32 W/m

0.00 mm

20:30

24.0 C

1014.2 hpa

57 %

6.4 km/h aus 116

9.7 km/h aus ENE

15.0 C

24.3 C

24.0 C

24.3 C

31 W/m

0.00 mm

20:35

23.9 C

1014.2 hpa

57 %

4.8 km/h aus 117

9.7 km/h aus E

14.9 C

24.3 C

23.9 C

24.3 C

29 W/m

0.00 mm

20:40

23.8 C

1014.2 hpa

58 %

4.8 km/h aus 117

8.0 km/h aus E

15.1 C

24.2 C

23.8 C

24.2 C

26 W/m

0.00 mm

20:45

23.7 C

1014.2 hpa

58 %

4.8 km/h aus 117

9.7 km/h aus ENE

15.0 C

24.1 C

23.7 C

24.1 C

25 W/m

0.00 mm

20:50

23.6 C

1014.2 hpa

59 %

4.8 km/h aus 114

9.7 km/h aus ENE

15.1 C

24.0 C

23.6 C

24.0 C

23 W/m

0.00 mm

20:55

23.5 C

1014.2 hpa

59 %

4.8 km/h aus 117

8.0 km/h aus E

15.0 C

23.9 C

23.5 C

23.9 C

20 W/m

0.00 mm

21:00

23.4 C

1014.2 hpa

60 %

4.8 km/h aus 117

11.3 km/h aus ENE

15.2 C

23.8 C

23.4 C

23.8 C

19 W/m

0.00 mm

21:05

23.3 C

1014.2 hpa

61 %

4.8 km/h aus 117

8.0 km/h aus ENE

15.3 C

23.7 C

23.3 C

23.7 C

17 W/m

0.00 mm

21:10

23.2 C

1014.2 hpa

61 %

4.8 km/h aus 115

8.0 km/h aus E

15.2 C

23.6 C

23.2 C

23.6 C

15 W/m

0.00 mm

21:15

23.0 C

1014.3 hpa

61 %

3.2 km/h aus 116

8.0 km/h aus E

15.1 C

23.3 C

23.0 C

23.3 C

13 W/m

0.00 mm

21:20

22.9 C

1014.3 hpa

62 %

4.8 km/h aus 117

8.0 km/h aus ENE

15.2 C

23.2 C

22.9 C

23.2 C

11 W/m

0.00 mm

21:25

22.8 C

1014.3 hpa

62 %

3.2 km/h aus 116

6.4 km/h aus ENE

15.1 C

23.1 C

22.8 C

23.1 C

9 W/m

0.00 mm

21:30

22.7 C

1014.3 hpa

63 %

3.2 km/h aus 115

8.0 km/h aus ENE

15.3 C

22.9 C

22.7 C

22.9 C

6 W/m

0.00 mm

21:35

22.4 C

1014.3 hpa

64 %

4.8 km/h aus 115

8.0 km/h aus ENE

15.3 C

22.7 C

22.4 C

22.7 C

5 W/m

0.00 mm

21:40

22.3 C

1014.3 hpa

64 %

4.8 km/h aus 117

8.0 km/h aus NE

15.2 C

22.5 C

22.3 C

22.5 C

2 W/m

0.00 mm

21:45

22.2 C

1014.3 hpa

65 %

4.8 km/h aus 117

6.4 km/h aus ENE

15.3 C

22.3 C

22.2 C

22.3 C

0 W/m

0.00 mm

21:50

22.0 C

1014.3 hpa

65 %

4.8 km/h aus 117

8.0 km/h aus ENE

15.1 C

22.1 C

22.0 C

22.1 C

0 W/m

0.00 mm

21:55

21.8 C

1014.3 hpa

65 %

4.8 km/h aus 114

9.7 km/h aus E

15.0 C

21.8 C

21.8 C

21.8 C

0 W/m

0.00 mm

22:00

21.7 C

1014.3 hpa

66 %

4.8 km/h aus 117

8.0 km/h aus NE

15.1 C

21.7 C

21.7 C

21.7 C

0 W/m

0.00 mm

22:05

21.6 C

1014.3 hpa

67 %

4.8 km/h aus 117

8.0 km/h aus E

15.2 C

21.6 C

21.6 C

21.6 C

0 W/m

0.00 mm

22:10

21.4 C

1014.3 hpa

67 %

4.8 km/h aus 117

8.0 km/h aus ENE

15.1 C

21.4 C

21.4 C

21.4 C

0 W/m

0.00 mm

22:15

21.3 C

1014.3 hpa

68 %

4.8 km/h aus 115

9.7 km/h aus ENE

15.1 C

21.3 C

21.3 C

21.3 C

0 W/m

0.00 mm

22:20

21.2 C

1014.3 hpa

68 %

6.4 km/h aus 116

9.7 km/h aus ENE

15.0 C

21.2 C

21.2 C

21.2 C

0 W/m

0.00 mm

22:25

21.1 C

1014.3 hpa

69 %

4.8 km/h aus 117

9.7 km/h aus ENE

15.1 C

21.1 C

21.1 C

21.1 C

0 W/m

0.00 mm

22:30

20.9 C

1014.3 hpa

69 %

4.8 km/h aus 117

8.0 km/h aus ENE

15.0 C

21.0 C

20.9 C

21.0 C

0 W/m

0.00 mm

22:35

20.8 C

1014.3 hpa

69 %

6.4 km/h aus 116

8.0 km/h aus E

14.9 C

20.9 C

20.8 C

20.9 C

0 W/m

0.00 mm

22:40

20.7 C

1014.3 hpa

70 %

4.8 km/h aus 115

8.0 km/h aus ENE

15.1 C

20.9 C

20.7 C

20.9 C

0 W/m

0.00 mm

22:45

20.7 C

1014.3 hpa

69 %

3.2 km/h aus 117

6.4 km/h aus ENE

14.8 C

20.8 C

20.7 C

20.8 C

0 W/m

0.00 mm

22:50

20.5 C

1014.3 hpa

69 %

3.2 km/h aus 117

6.4 km/h aus ENE

14.6 C

20.7 C

20.5 C

20.7 C

0 W/m

0.00 mm

22:55

20.3 C

1014.3 hpa

70 %

3.2 km/h aus 116

4.8 km/h aus ENE

14.7 C

20.6 C

20.3 C

20.6 C

0 W/m

0.00 mm

23:00

20.2 C

1014.3 hpa

70 %

3.2 km/h aus 114

4.8 km/h aus ENE

14.5 C

20.4 C

20.2 C

20.4 C

0 W/m

0.00 mm

23:05

19.9 C

1014.3 hpa

71 %

3.2 km/h aus 117

4.8 km/h aus ENE

14.5 C

20.3 C

19.9 C

20.3 C

0 W/m

0.00 mm

23:10

19.8 C

1014.3 hpa

72 %

3.2 km/h aus 117

4.8 km/h aus ENE

14.6 C

20.1 C

19.8 C

20.1 C

0 W/m

0.00 mm

23:15

19.5 C

1014.3 hpa

72 %

1.6 km/h aus 117

3.2 km/h aus ENE

14.3 C

19.8 C

19.5 C

19.8 C

0 W/m

0.00 mm

23:20

19.3 C

1014.3 hpa

73 %

1.6 km/h aus 114

3.2 km/h aus ENE

14.4 C

19.6 C

19.3 C

19.6 C

0 W/m

0.00 mm

23:25

19.2 C

1014.3 hpa

73 %

3.2 km/h aus 115

4.8 km/h aus ENE

14.2 C

19.4 C

19.2 C

19.4 C

0 W/m

0.00 mm

23:30

18.9 C

1014.2 hpa

74 %

1.6 km/h aus 117

3.2 km/h aus ENE

14.2 C

19.2 C

18.9 C

19.2 C

0 W/m

0.00 mm

23:35

18.8 C

1014.2 hpa

74 %

3.2 km/h aus 117

4.8 km/h aus ENE

14.0 C

19.0 C

18.8 C

19.0 C

0 W/m

0.00 mm

23:40

18.7 C

1014.2 hpa

75 %

3.2 km/h aus 118

4.8 km/h aus ENE

14.1 C

18.9 C

18.7 C

18.9 C

0 W/m

0.00 mm

23:45

18.5 C

1014.2 hpa

75 %

3.2 km/h aus 114

4.8 km/h aus ENE

14.0 C

18.7 C

18.5 C

18.7 C

0 W/m

0.00 mm

23:50

18.3 C

1014.2 hpa

76 %

3.2 km/h aus 117

6.4 km/h aus ENE

14.0 C

18.6 C

18.3 C

18.6 C

0 W/m

0.00 mm

23:55

18.2 C

1014.2 hpa

76 %

3.2 km/h aus 116

6.4 km/h aus ENE

13.9 C

18.4 C

18.2 C

18.4 C

0 W/m

0.00 mm